FW1480 Weather Reports


Display with metric or nautical units.
time (UTC)temp
F
wind
direction
speed
MPH
gust
MPH
rain 1hr
in
rain 24hr
in
rain mn
in
humidity
%
barometer
mb
20260507041447 51 142 0.0 0.0 0.00 0.14 0.00 93 1010.7
20260507040947 51 142 0.0 0.0 0.00 0.14 0.00 93 1010.4
20260507040447 51 142 0.0 0.0 0.00 0.14 0.00 93 1010.7
20260507035946 51 217 0.0 0.0 0.00 0.14 0.14 93 1010.4
20260507035444 51 139 0.0 0.0 0.00 0.14 0.14 93 1010.3
20260507034944 51 139 0.0 0.0 0.00 0.14 0.14 93 1010.0
20260507034441 51 139 0.0 0.0 0.00 0.14 0.14 93 1010.2
20260507033939 51 139 0.0 0.0 0.00 0.14 0.14 93 1010.2
20260507033436 51 155 0.0 0.0 0.00 0.14 0.14 94 1010.1
20260507032936 52 155 0.0 0.0 0.00 0.14 0.14 93 1010.0
20260507032436 52 62 0.0 0.0 0.00 0.14 0.14 93 1010.3
20260507031934 52 92 0.0 1.0 0.00 0.14 0.14 94 1010.2
20260507031432 52 67 0.0 1.0 0.00 0.14 0.14 94 1010.3
20260507030930 53 67 0.0 4.0 0.00 0.14 0.14 94 1010.3
20260507030432 53 61 0.0 4.0 0.00 0.14 0.14 94 1010.4
20260507025931 54 40 0.0 6.0 0.00 0.14 0.14 94 1010.4
20260507025429 54 127 0.0 6.0 0.00 0.14 0.14 94 1010.1
20260507024928 55 77 0.0 2.0 0.00 0.14 0.14 94 1010.0
20260507024428 56 66 0.0 2.0 0.00 0.14 0.14 94 1010.1
20260507023923 57 286 0.0 7.0 0.00 0.14 0.14 95 1010.2
20260507023417 58 329 0.0 7.0 0.00 0.14 0.14 96 1010.0
20260507022911 58 131 0.0 0.0 0.00 0.14 0.14 96 1010.1
20260507022404 58 108 0.0 0.0 0.01 0.14 0.14 96 1010.1
20260507021859 58 108 0.0 0.0 0.01 0.14 0.14 96 1010.0
20260507021353 58 108 0.0 0.0 0.01 0.14 0.14 96 1010.0
20260507020846 59 113 0.0 0.0 0.01 0.14 0.14 96 1009.7
20260507020340 59 111 0.0 0.0 0.01 0.14 0.14 96 1009.8
20260507015849 59 108 0.0 0.0 0.01 0.14 0.14 96 1009.8
20260507015328 59 74 0.0 0.0 0.01 0.14 0.14 96 1009.9
20260507014822 60 120 0.0 0.0 0.01 0.14 0.14 96 1009.9
20260507014321 60 115 0.0 0.0 0.01 0.14 0.14 97 1009.9
20260507013821 60 124 0.0 0.0 0.01 0.14 0.14 97 1009.8
20260507013321 60 207 0.0 0.0 0.01 0.14 0.14 97 1009.6
20260507012820 60 125 0.0 0.0 0.00 0.13 0.13 97 1009.6
20260507012321 60 201 0.0 1.0 0.00 0.13 0.13 97 1009.6
20260507011820 60 207 0.0 2.0 0.00 0.13 0.13 97 1009.6
20260507010821 60 195 0.0 0.0 0.00 0.13 0.13 97 1009.4
20260507010320 60 200 0.0 0.0 0.00 0.13 0.13 97 1009.5
20260507005823 60 151 0.0 1.0 0.00 0.13 0.13 97 1009.4
20260507005320 60 205 0.0 1.0 0.00 0.13 0.13 97 1009.4
20260507004821 60 137 0.0 2.0 0.00 0.13 0.13 97 1009.4
20260507004320 60 198 0.0 2.0 0.00 0.13 0.13 97 1009.3
20260507003821 60 198 0.0 0.0 0.00 0.13 0.13 96 1009.1
20260507003321 60 200 0.0 0.0 0.00 0.13 0.13 96 1009.1
20260507002818 60 188 0.0 0.0 0.00 0.13 0.13 97 1009.0
20260507002319 60 213 0.0 0.0 0.00 0.13 0.13 96 1009.0
20260507001319 60 173 0.0 0.0 0.00 0.13 0.13 96 1009.2
20260507000819 60 216 0.0 2.0 0.00 0.13 0.13 96 1009.1
20260507000315 60 190 0.0 2.0 0.00 0.13 0.13 96 1009.0
20260506235817 60 214 0.0 2.0 0.00 0.13 0.13 96 1009.0
20260506235314 60 152 0.0 2.0 0.00 0.13 0.13 96 1008.9
20260506234813 60 229 0.0 3.0 0.00 0.13 0.13 96 1008.7
20260506233813 60 146 0.0 5.0 0.00 0.13 0.13 96 1008.7
20260506233312 60 203 0.0 3.0 0.00 0.13 0.13 96 1008.9
20260506232811 60 190 0.0 3.0 0.00 0.13 0.13 96 1008.8
20260506232310 60 218 0.0 1.0 0.00 0.13 0.13 96 1008.9
20260506231807 60 171 0.0 1.0 0.00 0.13 0.13 96 1008.8
20260506231309 60 203 0.0 1.0 0.00 0.13 0.13 96 1008.8
20260506230807 60 194 0.0 1.0 0.00 0.13 0.13 96 1008.9
20260506230306 60 140 0.0 4.0 0.00 0.13 0.13 96 1008.8
20260506225806 60 154 0.0 4.0 0.00 0.13 0.13 96 1008.7
20260506225306 60 201 0.0 3.0 0.00 0.13 0.13 96 1008.6
20260506224807 60 210 0.0 3.0 0.00 0.13 0.13 96 1008.7
20260506224305 60 201 0.0 3.0 0.00 0.13 0.13 96 1008.6
20260506223307 60 152 0.0 3.0 0.00 0.13 0.13 96 1008.5
20260506222807 60 177 0.0 3.0 0.00 0.13 0.13 96 1008.4
20260506222305 60 195 0.0 1.0 0.00 0.13 0.13 96 1008.3
20260506221800 60 207 0.0 0.0 0.00 0.13 0.13 96 1008.3
20260506221300 59 212 0.0 1.0 0.00 0.13 0.13 96 1008.4
20260506220759 59 162 0.0 2.0 0.00 0.13 0.13 96 1008.4
20260506215800 59 198 0.0 4.0 0.00 0.13 0.13 96 1008.4
20260506214757 59 215 0.0 0.0 0.00 0.13 0.13 96 1008.2
20260506214259 59 205 0.0 0.0 0.00 0.13 0.13 96 1008.2
20260506212753 59 159 0.0 2.0 0.02 0.13 0.13 96 1008.2
20260506212246 59 194 0.0 2.0 0.02 0.13 0.13 96 1008.2
20260506211739 59 200 0.0 1.0 0.03 0.13 0.13 96 1008.2
20260506211234 59 136 0.0 1.0 0.04 0.13 0.13 96 1008.2
20260506210727 59 200 0.0 0.0 0.05 0.13 0.13 96 1008.2
20260506205716 59 211 0.0 1.0 0.06 0.13 0.13 95 1008.1
20260506205209 59 215 0.0 4.0 0.06 0.13 0.13 95 1008.1
20260506204703 59 212 0.0 4.0 0.06 0.13 0.13 95 1008.2
20260506204158 59 214 0.0 1.0 0.07 0.13 0.13 95 1008.3
20260506203146 60 146 0.0 0.0 0.07 0.12 0.12 95 1008.2
20260506202639 59 228 0.0 0.0 0.07 0.11 0.11 95 1008.4
20260506202134 59 219 0.0 0.0 0.07 0.11 0.11 95 1008.5
20260506201628 59 172 0.0 1.0 0.06 0.10 0.10 95 1008.5
20260506201121 59 206 0.0 1.0 0.06 0.09 0.09 95 1008.5
20260506200615 59 171 0.0 0.0 0.05 0.08 0.08 94 1008.5
20260506200109 59 162 0.0 0.0 0.05 0.08 0.08 94 1008.7
20260506195057 59 212 0.0 5.0 0.04 0.07 0.07 94 1008.8
20260506194551 60 228 0.0 0.0 0.03 0.06 0.07 94 1008.9
20260506193539 60 164 0.0 5.0 0.02 0.05 0.06 93 1008.8
20260506193034 59 200 0.0 3.0 0.02 0.05 0.05 93 1009.0
20260506192527 59 211 0.0 1.0 0.01 0.04 0.04 92 1009.0
20260506192022 59 213 0.0 0.0 0.01 0.04 0.04 92 1008.9
20260506191515 60 197 0.0 1.0 0.01 0.04 0.04 92 1009.0
20260506190503 60 229 0.0 1.0 0.00 0.03 0.03 92 1009.0
20260506185958 59 149 0.0 1.0 0.00 0.03 0.03 92 1009.0
20260506185457 59 240 0.0 4.0 0.00 0.03 0.03 92 1009.1
20260506184956 59 198 0.0 4.0 0.00 0.03 0.03 91 1009.1
20260506184456 59 215 0.0 2.0 0.01 0.03 0.03 92 1009.2
20260506183953 59 134 0.0 6.0 0.01 0.03 0.03 92 1009.1
20260506183452 59 165 0.0 6.0 0.01 0.03 0.03 91 1009.2
20260506182949 59 219 0.0 3.0 0.01 0.03 0.03 91 1009.4
20260506182447 60 214 0.0 2.0 0.01 0.03 0.03 92 1009.3
20260506181949 60 189 0.0 6.0 0.01 0.03 0.03 92 1009.4
20260506181448 60 167 0.0 6.0 0.01 0.03 0.03 92 1009.6
20260506180945 60 231 0.0 4.0 0.01 0.03 0.03 91 1009.5
20260506180444 60 151 0.0 3.0 0.02 0.03 0.03 91 1009.6
20260506175946 60 155 0.0 3.0 0.02 0.03 0.03 91 1009.7
20260506175445 60 221 0.0 3.0 0.02 0.03 0.03 91 1009.7
20260506174446 60 193 0.0 3.0 0.02 0.02 0.02 90 1009.7
20260506173946 60 142 0.0 0.0 0.02 0.02 0.02 91 1009.5
20260506172946 60 195 0.0 1.0 0.02 0.02 0.02 90 1009.4
20260506172444 61 257 0.0 1.0 0.02 0.02 0.02 89 1009.5
20260506171945 61 200 0.0 1.0 0.02 0.02 0.02 88 1009.4
20260506171444 62 188 0.0 0.0 0.02 0.02 0.02 88 1009.6
20260506170945 62 251 0.0 1.0 0.02 0.02 0.02 87 1009.6
20260506165945 62 212 0.0 0.0 0.01 0.01 0.01 86 1009.9
20260506164942 63 186 0.0 0.0 0.00 0.00 0.00 84 1010.1
20260506164443 63 160 0.0 0.0 0.00 0.00 0.00 83 1010.3
20260506163943 64 153 0.0 0.0 0.00 0.00 0.00 82 1010.7
20260506163442 64 212 0.0 0.0 0.00 0.00 0.00 81 1010.7
20260506162944 64 217 0.0 1.0 0.00 0.00 0.00 80 1010.6
20260506162442 64 200 0.0 1.0 0.00 0.00 0.00 80 1010.6
20260506161941 64 218 0.0 0.0 0.00 0.00 0.00 80 1010.6
20260506161441 64 201 0.0 0.0 0.00 0.00 0.00 80 1010.5
20260506160441 64 231 0.0 0.0 0.00 0.00 0.00 79 1010.6
20260506155941 65 183 0.0 0.0 0.00 0.00 0.00 79 1010.7
20260506155442 65 207 0.0 1.0 0.00 0.00 0.00 79 1010.8
20260506154941 65 231 0.0 2.0 0.00 0.00 0.00 78 1010.8
20260506154442 65 195 0.0 2.0 0.00 0.00 0.00 77 1010.9
20260506153437 66 146 0.0 0.0 0.00 0.00 0.00 76 1010.9
20260506152937 66 165 0.0 2.0 0.00 0.00 0.00 77 1011.0
20260506152438 66 206 0.0 3.0 0.00 0.00 0.00 76 1011.0
20260506151935 66 207 0.0 3.0 0.00 0.00 0.00 76 1010.9
20260506151436 66 218 0.0 1.0 0.00 0.00 0.00 76 1011.0
20260506150935 66 171 0.0 2.0 0.00 0.00 0.00 76 1011.0
20260506150434 66 216 0.0 2.0 0.00 0.00 0.00 77 1010.9
20260506145932 65 202 0.0 2.0 0.00 0.00 0.00 77 1010.9
20260506144932 65 185 0.0 2.0 0.00 0.00 0.00 77 1010.9
20260506143930 65 139 0.0 2.0 0.00 0.00 0.00 77 1010.9
20260506143426 65 226 0.0 2.0 0.00 0.00 0.00 77 1010.9
20260506142926 65 212 0.0 7.0 0.00 0.00 0.00 77 1010.9
20260506142426 65 207 0.0 7.0 0.00 0.00 0.00 77 1011.0
20260506141425 65 150 0.0 6.0 0.00 0.00 0.00 77 1011.1
20260506140425 65 201 0.0 2.0 0.00 0.00 0.00 79 1011.1
20260506135925 64 188 0.0 4.0 0.00 0.00 0.00 78 1011.1
20260506135425 64 221 1.0 4.0 0.00 0.00 0.00 78 1010.8
20260506134924 64 246 0.0 4.0 0.00 0.00 0.00 79 1010.8
20260506134424 64 227 0.0 4.0 0.00 0.00 0.00 78 1010.8
20260506133925 64 148 1.0 5.0 0.00 0.00 0.00 80 1010.9
20260506132924 63 104 0.0 3.0 0.00 0.00 0.00 80 1011.0
20260506132425 63 224 0.0 3.0 0.00 0.00 0.00 81 1011.1
20260506131925 0 0.0 0.0 0.00 0.00 0.00 1010.9
20260506130918 0 0.0 0.0 0.00 0.00 0.00 1010.9
20260506130416 0 0.0 0.0 0.00 0.00 0.00 1011.1
20260506125321 0 0.0 0.0 0.00 0.00 0.00 1011.1
20260506124821 0 0.0 0.0 0.00 0.00 0.00 1011.0
20260506124314 0 0.0 0.0 0.00 0.00 0.00 1011.1
20260506123718 0 0.0 0.0 0.00 0.00 0.00 1011.1
20260506123128 0 0.0 0.0 0.00 0.00 0.00 1011.1
20260506122617 0 0.0 0.0 0.00 0.00 0.00 1011.2
20260506122021 0 0.0 0.0 0.00 0.00 0.00 1011.3
20260506121519 0 0.0 0.0 0.00 0.00 0.00 1011.3
20260506120927 0 0.0 0.0 0.00 0.00 0.00 1011.6
20260506120423 0 0.0 0.0 0.00 0.00 0.00 1011.6
20260506115920 0 0.0 0.0 0.00 0.00 0.00 1011.6
20260506115417 0 0.0 0.0 0.00 0.00 0.00 1011.4
20260506114917 0 0.0 0.0 0.00 0.00 0.00 1011.2
20260506114325 0 0.0 0.0 0.00 0.00 0.00 1011.2
20260506113817 0 0.0 0.0 0.00 0.00 0.00 1011.4
20260506113317 0 0.0 0.0 0.00 0.00 0.00 1011.2
20260506112718 0 0.0 0.0 0.00 0.00 0.00 1011.3
20260506112217 0 0.0 0.0 0.00 0.00 0.00 1011.4
20260506111628 0 0.0 0.0 0.00 0.00 0.00 1011.5
20260506111120 0 0.0 0.0 0.00 0.00 0.00 1011.5
20260506110620 0 0.0 0.0 0.00 0.00 0.00 1011.6
20260506110119 0 0.0 0.0 0.00 0.00 0.00 1011.6
20260506105525 0 0.0 0.0 0.00 0.00 0.00 1011.4
20260506105026 0 0.0 0.0 0.00 0.00 0.00 1011.4
20260506104011 0 0.0 0.0 0.00 0.00 0.00 1011.6
20260506103416 0 0.0 0.0 0.00 0.00 0.00 1011.5
20260506102824 0 0.0 0.0 0.00 0.00 0.00 1011.5
20260506102321 0 0.0 0.0 0.00 0.00 0.00 1011.4
20260506101819 0 0.0 0.0 0.00 0.00 0.00 1011.2
20260506101319 0 0.0 0.0 0.00 0.00 0.00 1011.1
20260506100813 0 0.0 0.0 0.00 0.00 0.00 1011.4
20260506100222 0 0.0 0.0 0.00 0.00 0.00 1011.4
20260506095718 0 0.0 0.0 0.00 0.00 0.00 1011.4
20260506095216 0 0.0 0.0 0.00 0.00 0.00 1011.3
20260506093626 0 0.0 0.0 0.00 0.00 0.00 1011.2
20260506093106 0 0.0 0.0 0.00 0.00 0.00 1011.2
20260506092517 0 0.0 0.0 0.00 0.00 0.00 1011.1
20260506092019 0 0.0 0.0 0.00 0.00 0.00 1011.1
20260506091428 0 0.0 0.0 0.00 0.00 0.00 1011.2
20260506090412 0 0.0 0.0 0.00 0.00 0.00 1011.2
20260506085913 0 0.0 0.0 0.00 0.00 0.00 1011.3
20260506085321 0 0.0 0.0 0.00 0.00 0.00 1011.4
20260506084728 0 0.0 0.0 0.00 0.00 0.00 1011.4
20260506084210 0 0.0 0.0 0.00 0.00 0.00 1011.5
20260506083617 0 0.0 0.0 0.00 0.00 0.00 1011.5
20260506083117 0 0.0 0.0 0.00 0.00 0.00 1011.6
20260506082024 0 0.0 0.0 0.00 0.00 0.00 1011.5
20260506081520 0 0.0 0.0 0.00 0.00 0.00 1011.5
20260506081018 0 0.0 0.0 0.00 0.00 0.00 1011.6
20260506080517 0 0.0 0.0 0.00 0.00 0.00 1011.4
20260506073315 59 225 0.0 0.0 0.00 0.00 0.00 82 1011.6
20260506072751 59 239 0.0 0.0 0.00 0.00 0.00 82 1011.7
20260506072253 59 198 0.0 0.0 0.00 0.00 0.00 82 1011.6
20260506071752 60 203 0.0 2.0 0.00 0.00 0.00 82 1011.7
20260506070751 60 199 0.0 2.0 0.00 0.00 0.00 81 1011.5
20260506070250 60 214 0.0 1.0 0.00 0.00 0.00 81 1011.5
20260506062208 60 211 0.0 0.0 0.00 0.00 0.00 79 1011.5
20260506061702 60 203 0.0 1.0 0.00 0.00 0.00 79 1011.6
20260506061155 60 217 0.0 1.0 0.00 0.00 0.00 78 1011.6
20260506060650 60 201 0.0 0.0 0.00 0.00 0.00 78 1011.4
20260506060144 61 197 0.0 1.0 0.00 0.00 0.00 78 1011.6
20260506051043 63 217 0.0 4.0 0.00 0.00 0.00 73 1012.0
20260506045019 63 212 0.0 0.0 0.00 0.00 0.00 72 1012.2
20260506044514 63 165 0.0 0.0 0.00 0.00 0.00 72 1012.2
20260506044008 63 221 0.0 0.0 0.00 0.00 0.00 72 1012.2
20260506043501 63 204 0.0 2.0 0.00 0.00 0.00 71 1012.2